Location: Fisher's Paradise
(46.5411°N, 80.0984°W)
Time: 22:05:07
(UTC-04:00)

ISS - Visible Passes

Search period start: 25 March 2019 00:00
Search period end: 04 April 2019 00:00
Orbit: 408 x 411 km, 51.6° (Epoch: 26 March)

Date Brightness Start Highest point End Pass type
(mag) Time Alt. Az. Time Alt. Az. Time Alt. Az.
25 Mar -2.8 21:28:38 10° W 21:31:49 43° NNW 21:32:45 33° NNE visible
26 Mar -3.2 20:37:48 10° W 20:41:04 57° NNW 20:44:18 10° ENE visible
26 Mar -1.6 22:15:03 10° WNW 22:17:04 26° NW 22:17:04 26° NW visible
27 Mar -2.4 21:24:11 10° WNW 21:27:14 33° N 21:28:31 24° NE visible
27 Mar -0.3 23:01:08 10° WNW 23:01:16 11° WNW 23:01:16 11° WNW visible
28 Mar -2.6 20:33:16 10° W 20:36:24 38° NNW 20:39:32 10° ENE visible
28 Mar -1.9 22:10:24 10° WNW 22:12:39 30° NNW 22:12:39 30° NNW visible
29 Mar -2.4 21:19:36 10° WNW 21:22:38 32° N 21:23:59 23° NE visible
29 Mar -0.5 22:56:18 10° WNW 22:56:44 13° WNW 22:56:44 13° WNW visible
30 Mar -2.4 20:28:44 10° WNW 20:31:46 32° N 20:34:48 10° ENE visible
30 Mar -2.4 22:05:35 10° WNW 22:08:02 38° NNW 22:08:02 38° NNW visible
31 Mar -2.7 21:14:51 10° WNW 21:17:58 37° NNE 21:19:19 25° ENE visible
31 Mar -0.7 22:51:26 10° WNW 22:52:04 15° WNW 22:52:04 15° WNW visible
01 Apr -2.5 20:24:02 10° WNW 20:27:06 33° N 20:30:08 10° ENE visible
01 Apr -3.1 22:00:40 10° WNW 22:03:20 54° NW 22:03:20 54° NW visible
02 Apr -3.4 21:09:56 10° WNW 21:13:12 55° NNE 21:14:37 29° E visible
02 Apr -0.8 22:46:42 10° WNW 22:47:22 14° W 22:47:22 14° W visible
03 Apr -3.0 20:19:10 10° WNW 20:22:20 42° NNE 20:25:30 10° E visible
03 Apr -3.1 21:55:46 10° WNW 21:58:39 48° WSW 21:58:39 48° WSW visible
